This demonstration page uses our WeatherBlox Daily Observations layout. Learn more.

Left ArrowRight Arrow

36.17497, -115.13722

Hourly Observations for August 16, 2019

Temp ( °F °C ) Dew Point ( °F °C ) Humidity (%) Winds ( mph kmh ) Pressure ( in mb ) Visibility ( mi km ) Precip ( " mm )
12:53 am 00:53 Clear 89 31.7 26 -3.3 10 10 Calm 29.78 1008 10 16 0.00 0.00
1:53 am 01:53 Clear 87 30.6 26 -3.3 11 11 SSE 5 7 29.78 1008 10 16 0.00 0.00
2:53 am 02:53 Clear 83 28.3 26 -3.3 12 12 N 6 9 29.78 1008 10 16 0.00 0.00
3:53 am 03:53 Clear 82 27.8 29 -1.7 14 14 Calm 29.79 1009 10 16 0.00 0.00
4:53 am 04:53 Clear 78 25.6 33 0.6 19 19 Calm 29.80 1009 10 16 0.00 0.00
5:53 am 05:53 Clear 77 25 32 0 19 19 N 5 7 29.81 1010 10 16 0.00 0.00
6:53 am 06:53 Sunny 80 26.7 26 -3.3 14 14 N 7 11 29.83 1010 10 16 0.00 0.00
7:53 am 07:53 Sunny 85 29.4 28 -2.2 13 13 N 6 9 29.85 1011 10 16 0.00 0.00
8:53 am 08:53 Sunny 90 32.2 28 -2.2 11 11 N 3 6 29.85 1011 10 16 0.00 0.00
9:53 am 09:53 Sunny 94 34.4 28 -2.2 9 9 Calm 29.85 1011 10 16 0.00 0.00
10:53 am 10:53 Sunny 97 36.1 28 -2.2 9 9 Calm 29.83 1010 10 16 0.00 0.00
11:53 am 11:53 Sunny 101 38.3 27 -2.8 7 7 S 7 11 29.81 1010 10 16 0.00 0.00
12:53 pm 12:53 Sunny 104 40 24 -4.4 6 6 VRB 5 7 29.78 1009 10 16 0.00 0.00
1:53 pm 13:53 Sunny 105 40.6 20 -6.7 5 5 NW 8 13 29.75 1008 10 16 0.00 0.00
2:53 pm 14:53 Sunny 107 41.7 19 -7.2 4 4 SSE 17 28 29.73 1007 10 16 0.00 0.00
3:53 pm 15:53 Sunny 106 41.1 20 -6.7 5 5 S 8 13 29.70 1006 10 16 0.00 0.00
4:53 pm 16:53 Sunny 106 41.1 21 -6.1 5 5 S 13 20 29.69 1006 10 16 0.00 0.00
6:53 pm 18:53 Sunny 103 39.4 21 -6.1 5 5 S 14 22 29.67 1005 10 16 0.00 0.00
7:53 pm 19:53 Clear 101 38.3 22 -5.6 6 6 SW 8 13 29.68 1005 10 16 0.00 0.00
8:53 pm 20:53 Clear 99 37.2 19 -7.2 5 5 SW 10 17 29.69 1005 10 16 0.00 0.00
9:53 pm 21:53 Clear 98 36.7 19 -7.2 6 6 SW 3 6 29.69 1005 10 16 0.00 0.00
10:53 pm 22:53 Clear 92 33.3 23 -5 8 8 Calm 29.70 1006 10 16 0.00 0.00
11:53 pm 23:53 Clear 90 32.2 24 -4.4 9 9 W 7 11 29.70 1006 10 16 0.00 0.00

Powered by AerisWeather